Location: Centerville
(32.8776°N, 96.6203°W)
Time: 00:04:21
(UTC+00:00)

Cosmos 1023 Rocket - Pass Details

Date: 17 June 2021
Orbit: 736 x 772 km, 74.1° (Epoch: 01 August)

Event Time Altitude Azimuth Distance (km) Brightness Sun altitude
Rises 02:34:43 0° 344° (NNW) 3,250 8.7 -11.0°
Reaches altitude 10° 02:37:07 10° 346° (NNW) 2,319 7.8 -11.4°
Maximum altitude 02:42:24 79° 73° (ENE) 785 4.5 -12.3°
Enters shadow 02:46:56 14° 160° (SSE) 2,035 6.2 -13.0°
